User: anonymous   Login
Location: Santa Barbara
(34.4500°N, 119.7700°W)
Time: 16:49:12
(UTC-07:00)
Language:

Cosmos 1892 Rocket - Orbit

View from above orbital plane
View from above orbital plane
View from above satellite
View from above satellite

Ground track
Ground track

The orbit data is extracted from the following two-line orbital elements,

1 18422U 87088B   16274.50248975  .00000160  00000-0  16754-4 0  9992
2 18422  82.5110  60.1969 0018822 210.6776 212.3094 14.82885080563332
Epoch (UTC): 30 September 2016 12:03:35
Eccentricity: 0.0018822
inclination: 82.5110°
perigee height: 607 km
apogee height: 633 km
right ascension of ascending node: 60.1969°
argument of perigee: 210.6776°
revolutions per day: 14.82885080
mean anomaly at epoch: 212.3094°
orbit number at epoch: 56333

The dashed part of the orbit path shows where the satellite is in the earth's shadow,  

DLR